Home > Time Zones > World Clock > Weather > U.S.A. > Hilo > Past weeks

Flag for U.S.A. Weather past 2 weeks in Hilo, Hawaii, U.S.A.

Now
75 °F

Light rain. Fog.


Feels Like: 74 °F
Forecast: 74 / 88 °F
Wind: 3 mph from West

Location: Hilo International Airport

Current Time: Aug 3, 2015 at 3:17:30 AM

Latest Report: Aug 3, 2015 at 2:45 AM


Visibility: 3 mi

Pressure: 29.85 "Hg

Humidity: 94%

Dew point: 73 °F

Location of HiloLocation

Historic Weather in Hilo — Graph

°F

Hilo temperature yesterday

Maximum temperature yesterday: 78 °F (at 12:53 PM)
Minimum temperature yesterday: 73 °F (at 12:53 AM)
Average temperature yesterday: 75 °F

Past Weeks' High & Low Weather Summary

 TemperatureHumidityPressure
High88 °F (Jul 25, 12:53 PM)100% (Jul 20, 6:02 AM)30.03 "Hg (Jul 20, 6:02 AM)
Low70 °F (Jul 23, 3:53 AM)48% (Jul 25, 1:53 PM)29.85 "Hg (Aug 3, 1:53 AM)
Average77 °F84%29.96 "Hg
* Reported Jul 19 1:17 AM — Aug 3 1:53 AM, Hilo, Weather by CustomWeather, © 2015

Note: Actual official high and low records may vary slightly from our data, if they occured in-between our weather recording intervals... More about our weather records

Advertising

Hilo weather history for previous 24 hours

 ConditionsComfort  
Time TempWeatherWind HumidityBarometerVisibility
1:53 AM
Mon, Aug 3
75 °FRain. Fog.6 mph96%29.85 "Hg2 mi
1:33 AM73 °FLight rain. Fog.No wind100%29.86 "Hg3 mi
12:53 AM74 °FOvercast.No wind97%29.87 "Hg10 mi
12:05 AM73 °FRain. Fog.5 mph100%29.89 "Hg4 mi
11:42 PM
Sun, Aug 2
73 °FLight rain. Fog.3 mph100%29.90 "Hg5 mi
11:14 PM73 °FRain. Fog.5 mph100%29.90 "Hg2 mi
10:53 PM74 °FLight rain. Fog.3 mph97%29.90 "Hg6 mi
10:30 PM73 °FRain. Fog.6 mph94%29.91 "Hg3 mi
10:11 PM73 °FLight rain. Fog.No wind100%29.91 "Hg5 mi
9:58 PM73 °FLight rain. Fog.5 mph100%29.91 "Hg5 mi
9:34 PM73 °FHeavy rain. Fog.7 mph100%29.91 "Hg1 mi
9:02 PM73 °FRain. Fog.6 mph100%29.90 "Hg3 mi
8:53 PM74 °FRain. Fog.6 mph100%29.90 "Hg2 mi
8:36 PM73 °FHeavy rain. Fog.6 mph100%29.90 "Hg1 mi
8:15 PM75 °FHeavy rain. Fog.7 mph94%29.90 "Hg2 mi
7:53 PM75 °FRain. Fog.6 mph96%29.90 "Hg2 mi
7:40 PM75 °FRain. Fog.6 mph94%29.90 "Hg2 mi
7:20 PM75 °FRain. Fog.7 mph94%29.89 "Hg2 mi
6:53 PM75 °FRain. Fog.9 mph96%29.88 "Hg2 mi
6:36 PM75 °FRain. Fog.8 mph94%29.88 "Hg2 mi
6:00 PM75 °FHeavy rain. Fog.9 mph94%29.88 "Hg1 mi
5:42 PM75 °FRain. Fog.10 mph94%29.88 "Hg2 mi
4:53 PM76 °FFog.12 mph97%29.86 "Hg2 mi
4:25 PM75 °FLight rain. Fog.8 mph100%29.87 "Hg2 mi
4:00 PM76 °FLight rain. Fog.8 mph97%29.87 "Hg1 mi
3:42 PM75 °FLight rain. Fog.7 mph100%29.87 "Hg2 mi
3:29 PM75 °FRain. Fog.7 mph100%29.87 "Hg2 mi
3:17 PM75 °FRain. Fog.8 mph100%29.88 "Hg2 mi
2:53 PM77 °FRain. Fog.8 mph94%29.88 "Hg1 mi
2:26 PM77 °FRain. Fog.8 mph94%29.88 "Hg2 mi
2:04 PM77 °FRain. Fog.9 mph94%29.89 "Hg1 mi
1:30 PM77 °FHeavy rain. Fog.9 mph94%29.89 "Hg1 mi
1:12 PM77 °FMostly cloudy.8 mph94%29.89 "Hg2 mi
1:02 PM77 °FLight rain. Fog.7 mph94%29.90 "Hg2 mi
12:53 PM78 °FRain. Fog.7 mph93%29.89 "Hg1 mi
12:34 PM77 °FLight rain. Mostly cloudy.7 mph94%29.91 "Hg2 mi
11:17 AM77 °FLight rain. Fog.9 mph94%29.92 "Hg2 mi
11:01 AM77 °FLight rain. Fog.9 mph94%29.92 "Hg2 mi
10:38 AM77 °FLight rain. Fog.7 mph94%29.93 "Hg2 mi
10:20 AM77 °FLight rain. Fog.7 mph94%29.93 "Hg2 mi
9:53 AM77 °FLight rain. Fog.7 mph90%29.92 "Hg3 mi
9:08 AM75 °FMostly cloudy.6 mph94%29.93 "Hg8 mi
8:53 AM75 °FLight rain. Fog.3 mph96%29.92 "Hg6 mi
8:46 AM75 °FLight rain. Fog.5 mph94%29.93 "Hg4 mi
8:20 AM75 °FLight rain. Fog.6 mph94%29.93 "Hg2 mi
7:53 AM74 °FLight rain. Fog.5 mph97%29.92 "Hg2 mi
7:25 AM73 °FLight rain. Fog.5 mph100%29.92 "Hg2 mi
6:53 AM74 °FLight rain. More clouds than sun.6 mph97%29.91 "Hg7 mi
6:38 AM73 °FMostly cloudy.7 mph100%29.91 "Hg7 mi
6:25 AM73 °FLight rain. Fog.7 mph100%29.91 "Hg2 mi
6:05 AM73 °FLight rain. Fog.6 mph100%29.91 "Hg2 mi
5:42 AM73 °FRain. Fog.3 mph100%29.90 "Hg2 mi
5:00 AM74 °FLight rain. Fog.7 mph97%29.90 "Hg4 mi
3:53 AM74 °FLight rain. Fog.6 mph97%29.89 "Hg3 mi
3:26 AM73 °FOvercast.6 mph100%29.90 "Hg7 mi
Weather by CustomWeather, © 2015

See weather overviewHow to use our weather pages